Tracking 29892 objects as of 21-Nov-2024
HD Live streaming from Space Station
objects crossing your sky now

STARLINK-30131

Track STARLINK-30131 now!
10-day predictions
STARLINK-30131 is classified as:


NORAD ID: 56833
Int'l Code: 2023-079L
Perigee: 565.1 km
Apogee: 567.3 km
Inclination: 43.0 °
Period: 95.8 minutes
Semi major axis: 6937 km
RCS: Unknown
Launch date: June 4, 2023
Source: United States (US)
Launch site: AIR FORCE EASTERN TEST RANGE (AFETR)
Your satellite tracking list
Your tracking list is empty




NASA's NSSDC Master Catalog

Two Line Element Set (TLE):
1 56833U 23079L   24324.52246784  .00000802  00000-0  74410-4 0  9999
2 56833  43.0016 143.3139 0001545 269.8261  90.2404 15.02534979 81388
Source of the keplerian elements: AFSPC